TimeEST,TemperatureF,Dew PointF,Humidity,Sea Level PressureIn,VisibilityMPH,Wind Direction,Wind SpeedMPH,Gust SpeedMPH,PrecipitationIn,Events,Conditions,WindDirDegrees,DateUTC
12:56 AM,35.1,23.0,61,30.04,10.0,West,9.2,-,N/A,,Clear,270,2013-03-04 05:56:00
1:56 AM,34.0,23.0,64,30.04,10.0,WNW,5.8,-,N/A,,Clear,290,2013-03-04 06:56:00
2:56 AM,33.1,23.0,66,30.05,10.0,WNW,9.2,-,N/A,,Clear,290,2013-03-04 07:56:00
3:56 AM,30.9,23.0,72,30.08,10.0,NW,8.1,-,N/A,,Clear,310,2013-03-04 08:56:00
4:56 AM,30.0,23.0,75,30.11,10.0,NW,6.9,-,N/A,,Clear,320,2013-03-04 09:56:00
5:56 AM,30.0,23.0,75,30.14,10.0,NW,5.8,-,N/A,,Clear,310,2013-03-04 10:56:00
6:56 AM,27.0,21.9,81,30.16,10.0,NNW,3.5,-,N/A,,Clear,330,2013-03-04 11:56:00
7:56 AM,33.1,25.0,72,30.18,10.0,NNW,5.8,-,N/A,,Clear,340,2013-03-04 12:56:00
8:56 AM,39.0,23.0,53,30.18,10.0,NNW,6.9,-,N/A,,Clear,340,2013-03-04 13:56:00
9:56 AM,42.1,19.0,40,30.19,10.0,NNW,10.4,-,N/A,,Clear,330,2013-03-04 14:56:00
10:56 AM,45.0,19.0,36,30.19,10.0,NW,6.9,-,N/A,,Clear,310,2013-03-04 15:56:00
11:56 AM,48.0,18.0,30,30.17,10.0,NW,6.9,-,N/A,,Clear,320,2013-03-04 16:56:00
12:56 PM,51.1,18.0,27,30.14,10.0,WNW,9.2,16.1,0.01,,Clear,300,2013-03-04 17:56:00
1:56 PM,54.0,18.0,24,30.11,10.0,NNW,8.1,19.6,N/A,,Partly Cloudy,330,2013-03-04 18:56:00
2:56 PM,55.0,17.1,23,30.11,10.0,NNW,8.1,-,N/A,,Partly Cloudy,340,2013-03-04 19:56:00
3:56 PM,57.0,17.1,21,30.10,10.0,NW,9.2,-,N/A,,Partly Cloudy,320,2013-03-04 20:56:00
4:56 PM,55.9,17.1,22,30.09,10.0,West,6.9,-,N/A,,Partly Cloudy,280,2013-03-04 21:56:00
5:56 PM,54.0,18.0,24,30.11,10.0,WNW,5.8,-,N/A,,Partly Cloudy,290,2013-03-04 22:56:00
6:56 PM,50.0,19.9,31,30.13,10.0,WSW,5.8,-,N/A,,Clear,250,2013-03-04 23:56:00
7:56 PM,46.0,30.0,54,30.14,10.0,SW,8.1,-,N/A,,Clear,220,2013-03-05 00:56:00
8:56 PM,45.0,33.1,63,30.15,10.0,SW,9.2,-,N/A,,Clear,230,2013-03-05 01:56:00
9:56 PM,42.1,33.1,70,30.15,10.0,SSW,3.5,-,N/A,,Clear,210,2013-03-05 02:56:00
10:56 PM,42.1,35.1,76,30.14,10.0,SSW,3.5,-,N/A,,Mostly Cloudy,200,2013-03-05 03:56:00
11:56 PM,43.0,37.0,80,30.13,10.0,SSW,5.8,-,N/A,,Overcast,200,2013-03-05 04:56:00